Regional Weather Roundup
Issued by NWS

Home | Current Version | Previous Version | Text Only | Print | Product List | Glossary On
Versions: 1 2 3 4 5 6 7 8 9 10 11 12 13 14 15 16 17 18 19 20 21 22 23 24 25 26 27 28
000
ASUS44 KJAN 211210
RWRMS

MISSISSIPPI HOURLY WEATHER ROUNDUP
NATIONAL WEATHER SERVICE JACKSON MS
600 AM CST TUE FEB 21 2017

NOTE: "FAIR: INDICATES FEW OR NO CLOUDS BELOW 12,000 FEET WITH NO
SIGNIFICANT WEATHER AND/OR OBSTRUCTIONS TO VISIBILITY.

MSZ001>002-007>008-010>013-018>021-025>028-034>036-211300-
NORTHWEST MISSISSIPPI

CITY           SKY/WX    TMP DP  RH WIND       PRES   REMARKS
BATESVILLE     DRIZZLE   58  57  94 CALM      29.84S
CLEVELAND      CLOUDY    59  59 100 SW8       29.85F
GREENWOOD      LGT RAIN  60  57  89 S5        29.85S
6HR MIN TEMP:  60; 6HR MAX TEMP:  64; 6HR PCP:  0.15;

GREENVILLE     CLOUDY    59  57  93 SW10      29.88S FOG
6HR MIN TEMP:  59; 6HR MAX TEMP:  60; 6HR PCP:  0.08;

OXFORD         FAIR      55  55 100 SE10G16   29.87F
TUNICA         LGT RAIN  57  55  94 SE10      29.81R
WINONA         LGT RAIN  58  58 100 SE3       29.87S
$$

MSZ003>006-009-014>017-022>024-029>033-037>039-211300-
NORTHEAST MISSISSIPPI

CITY           SKY/WX    TMP DP  RH WIND       PRES   REMARKS
COLUMBUS AFB   LGT RAIN  59  57  94 SE13      29.91F
6HR MIN TEMP:  58; 6HR MAX TEMP:  64; 6HR PCP:  0.08;

TUPELO         CLOUDY    59  55  87 E15       29.90F
6HR MIN TEMP:  58; 6HR MAX TEMP:  67;

$$

MSZ040-058-211300-
CENTRAL MISSISSIPPI

CITY           SKY/WX    TMP DP  RH WIND       PRES   REMARKS
JACKSON INTL   LGT RAIN  60  57  89 S6        29.90F
6HR MIN TEMP:  59; 6HR MAX TEMP:  64; 6HR PCP:  0.32;

JACKSON HAWKNS NOT AVBL
MADISON        PTSUNNY  N/A N/A N/A CALM      29.88S
MERIDIAN KEY   CLOUDY    62  61  96 CALM      29.95S
6HR MIN TEMP:  62; 6HR MAX TEMP:  68; 6HR PCP:  0.20;

MERIDIAN NAS   LGT RAIN  61  57  87 S7        29.96
6HR MIN TEMP:  61; 6HR MAX TEMP:  67; 6HR PCP:  0.14;

VICKSBURG VKS  CLOUDY    59  59 100 SW6       29.89F
$$

MSZ059>079-211300-
SOUTH MISSISSIPPI

CITY           SKY/WX    TMP DP  RH WIND       PRES   REMARKS
BROOKHAVEN     CLOUDY   N/A N/A N/A CALM      29.92F
COLUMBIA       LGT RAIN  59 N/A N/A SE3       29.93S
HATTIESBURG    CLOUDY    60  59  96 SE7       29.94R
6HR MIN TEMP:  60; 6HR MAX TEMP:  67; 6HR PCP:  0.48;

LAUREL         CLOUDY    59  59 100 E6        29.91F
MCCOMB         CLOUDY    59  57  93 SW6       29.94R
6HR MIN TEMP:  59; 6HR MAX TEMP:  60; 6HR PCP:  0.18;

NATCHEZ        CLOUDY    57  54  88 SW8       29.93S
6HR MIN TEMP:  57; 6HR MAX TEMP:  59; 6HR PCP:  0.22;

PINE BELT      MOCLDY    59  55  88 SE6       29.94R
6HR MIN TEMP:  59; 6HR MAX TEMP:  66; 6HR PCP:  0.35;

$$

MSZ080>082-211300-
COASTAL MISSISSIPPI

CITY           SKY/WX    TMP DP  RH WIND       PRES   REMARKS
BILOXI         LGT RAIN  63  61  94 SE6       29.97R
6HR MIN TEMP:  61; 6HR MAX TEMP:  69; 6HR PCP:  0.22;

PASCAGOULA     CLOUDY    62  59  90 E3        29.97R
6HR MIN TEMP:  61; 6HR MAX TEMP:  69; 6HR PCP:  0.17;

GULFPORT       RAIN      62  60  93 VRB6      29.96R FOG
6HR MIN TEMP:  62; 6HR MAX TEMP:  69; 6HR PCP:  0.24;

$$

LAZ007>009-015>016-023>026-211300-
NORTHEAST LOUISIANA

CITY           SKY/WX    TMP DP  RH WIND       PRES   REMARKS
BASTROP        CLOUDY    58  57  97 S6        29.93R
TALLULAH/VBURG HVY RAIN  59  58  96 SW3       29.91F FOG
6HR MIN TEMP:  58; 6HR MAX TEMP:  59; 6HR PCP:  0.23;

VIDALIA        CLOUDY    58  57  97 SW10      29.93S
$$




USA.gov is the U.S. government's official web portal to all federal, state and local government web resources and services.